START_TIME,STEP,MOV.,H8,t_acc.,H43,t_acc.,M25,t_acc.,H9,t_acc.
1979-07-23 03:00:29.080 ,1,0,0.,12.0,0.,12.0,0.,12.0,0.,12.0
1979-07-23 03:00:41.080 ,1,0,0.,12.0,0.,12.0,0.,12.0,0.,12.0
1979-07-23 03:00:53.080 ,2,0,0.,12.0,0.,12.0,0.,12.0,0.,12.0
1979-07-23 03:01:05.080 ,2,0,0.,12.0,0.,12.0,0.,12.0,0.,12.0
1979-07-23 03:01:17.080 ,2,0,0.,12.0,0.,12.0,0.,12.0,0.,12.0
1979-07-23 03:01:29.080 ,2,0,0.,12.0,0.,12.0,0.,12.0,0.,12.0
1979-07-23 03:01:41.080 ,3,0,0.,12.0,0.,12.0,0.,12.0,0.,12.0
1979-07-23 03:01:53.080 ,3,0,0.,12.0,0.,12.0,0.,12.0,0.,12.0
1979-07-23 03:02:05.080 ,3,0,0.,12.0,0.,12.0,0.,12.0,0.,12.0
1979-07-23 03:02:17.080 ,3,0,0.,12.0,0.,12.0,0.,12.0,0.,12.0
1979-07-23 03:03:17.080 ,0,0,0.,12.0,0.,12.0,0.,12.0,0.,12.0
1979-07-23 03:03:29.080 ,0,0,0.,12.0,0.,12.0,0.,12.0,0.,12.0
1979-07-23 03:03:41.080 ,0,0,0.,12.0,0.,12.0,0.,12.0,0.,12.0
1979-07-23 03:03:53.080 ,0,0,0.,12.0,0.,12.0,0.,12.0,0.,12.0
1979-07-23 03:04:05.080 ,6,0,0.,12.0,0.,12.0,0.,12.0,0.,12.0
1979-07-23 03:04:17.080 ,6,0,0.,12.0,0.,12.0,0.,12.0,0.,12.0
1979-07-23 03:04:29.080 ,6,0,0.,12.0,0.,12.0,0.,12.0,0.,12.0
1979-07-23 03:04:41.080 ,6,0,0.,12.0,0.,12.0,0.,12.0,0.,12.0
1979-07-23 03:04:53.080 ,7,0,0.,12.0,0.,12.0,0.,12.0,0.,12.0
1979-07-23 03:05:05.080 ,7,0,0.,12.0,0.,12.0,0.,12.0,0.,12.0
1979-07-23 03:05:17.080 ,7,0,0.,12.0,0.,12.0,0.,12.0,0.,12.0
1979-07-23 03:05:29.080 ,7,0,0.,12.0,0.,12.0,0.,12.0,0.,12.0
1979-07-23 03:05:41.080 ,7,0,0.,12.0,0.,12.0,0.,12.0,0.,12.0
1979-07-23 03:05:53.080 ,7,0,0.,12.0,0.,12.0,0.,12.0,0.,12.0
1979-07-23 03:06:05.080 ,7,0,0.,12.0,0.,12.0,0.,12.0,0.,12.0
1979-07-23 03:06:17.080 ,7,0,0.,12.0,0.,12.0,0.,12.0,0.,12.0
1979-07-23 03:06:29.080 ,6,0,0.,12.0,0.,12.0,0.,12.0,0.,12.0
1979-07-23 03:06:41.080 ,6,0,0.,12.0,0.,12.0,0.,12.0,0.,12.0
1979-07-23 03:06:53.080 ,6,0,0.,12.0,0.,12.0,0.,12.0,0.,12.0
1979-07-23 03:07:05.080 ,6,0,0.,12.0,0.,12.0,0.,12.0,0.,12.0
1979-07-23 03:07:17.080 ,5,0,0.,12.0,0.,12.0,0.,12.0,0.,12.0
1979-07-23 03:07:29.080 ,5,0,0.,12.0,0.,12.0,0.,12.0,0.,12.0
1979-07-23 03:07:41.080 ,5,0,0.,12.0,0.,12.0,0.,12.0,0.,12.0
1979-07-23 03:07:53.080 ,5,0,0.,12.0,0.,12.0,0.,12.0,0.,12.0
1979-07-23 03:08:05.080 ,4,0,0.,12.0,0.,12.0,0.,12.0,0.,12.0
1979-07-23 03:08:17.080 ,4,0,0.,12.0,0.,12.0,0.,12.0,0.,12.0
1979-07-23 03:08:29.080 ,4,0,0.,12.0,0.,12.0,0.,12.0,0.,12.0
1979-07-23 03:08:41.080 ,4,0,0.,12.0,0.,12.0,0.,12.0,0.,12.0
1979-07-23 03:08:53.080 ,3,0,0.,12.0,0.,12.0,0.,12.0,0.,12.0
1979-07-23 03:09:05.080 ,3,0,0.,12.0,0.,12.0,0.,12.0,0.,12.0
1979-07-23 03:09:17.080 ,3,0,0.,12.0,0.,12.0,0.,12.0,0.,12.0
1979-07-23 03:09:29.080 ,3,0,0.,12.0,0.,12.0,0.,12.0,0.,12.0
1979-07-23 03:09:41.080 ,2,0,0.,12.0,0.,12.0,0.,12.0,0.,12.0
1979-07-23 03:09:53.080 ,2,0,0.,12.0,0.,12.0,0.,12.0,0.,12.0
1979-07-23 03:10:05.080 ,2,0,0.,12.0,0.,12.0,0.,12.0,0.,12.0
1979-07-23 03:10:17.080 ,2,0,0.,12.0,0.,12.0,0.,12.0,0.,12.0
1979-07-23 03:10:29.080 ,1,0,0.,12.0,0.,12.0,0.,12.0,0.,12.0
1979-07-23 03:10:41.080 ,1,0,0.,12.0,0.,12.0,0.,12.0,0.,12.0
1979-07-23 03:10:53.080 ,1,0,0.,12.0,0.,12.0,0.,12.0,0.,12.0
1979-07-23 03:11:05.080 ,1,0,0.,12.0,0.,12.0,0.,12.0,0.,12.0
1979-07-23 03:11:17.080 ,0,0,0.,12.0,0.,12.0,0.,12.0,0.,12.0
1979-07-23 03:11:29.080 ,0,0,0.,12.0,0.,12.0,0.,12.0,0.,12.0
1979-07-23 03:11:41.080 ,0,0,0.,12.0,0.,12.0,0.,12.0,0.,12.0
1979-07-23 03:11:53.080 ,0,0,0.,12.0,0.,12.0,0.,12.0,0.,12.0
1979-07-23 03:12:05.080 ,0,0,0.,12.0,0.,12.0,0.,12.0,0.,12.0
1979-07-23 03:12:17.080 ,0,0,0.,12.0,0.,12.0,0.,12.0,0.,12.0
1979-07-23 03:12:29.080 ,0,0,0.,12.0,0.,12.0,0.,12.0,0.,12.0
1979-07-23 03:12:41.080 ,0,0,0.,12.0,0.,12.0,0.,12.0,0.,12.0
1979-07-23 03:12:53.080 ,1,0,0.,12.0,0.,12.0,0.,12.0,0.,12.0
1979-07-23 03:13:05.080 ,1,0,0.,12.0,0.,12.0,0.,12.0,0.,12.0
1979-07-23 03:13:17.080 ,1,0,0.,12.0,0.,12.0,0.,12.0,0.,12.0
1979-07-23 03:13:29.080 ,1,0,0.,12.0,0.,12.0,0.,12.0,0.,12.0
1979-07-23 03:13:41.080 ,2,0,0.,12.0,0.,12.0,0.,12.0,0.,12.0
1979-07-23 03:13:53.080 ,2,0,0.,12.0,0.,12.0,0.,12.0,0.,12.0
1979-07-23 03:14:05.080 ,2,0,0.,12.0,0.,12.0,0.,12.0,0.,12.0
1979-07-23 03:14:17.080 ,2,0,0.,12.0,0.,12.0,0.,12.0,0.,12.0
1979-07-23 03:14:29.080 ,3,0,0.,12.0,0.,12.0,0.,12.0,0.,12.0
1979-07-23 03:14:41.080 ,3,0,0.,12.0,0.,12.0,0.,12.0,0.,12.0
1979-07-23 03:14:53.080 ,3,0,0.,12.0,0.,12.0,0.,12.0,0.,12.0
1979-07-23 03:15:05.080 ,3,0,0.,12.0,0.,12.0,0.,12.0,0.,12.0
1979-07-23 03:15:17.080 ,4,0,0.,12.0,0.,12.0,0.,12.0,0.,12.0
1979-07-23 03:15:29.080 ,4,0,0.,12.0,0.,12.0,0.,12.0,0.,12.0
1979-07-23 03:15:41.080 ,4,0,0.,12.0,0.,12.0,0.,12.0,0.,12.0
1979-07-23 03:15:53.080 ,4,0,0.,12.0,0.,12.0,0.,12.0,0.,12.0
1979-07-23 03:16:05.080 ,5,0,0.,12.0,0.,12.0,0.,12.0,0.,12.0
1979-07-23 03:16:17.080 ,5,0,0.,12.0,0.,12.0,0.,12.0,0.,12.0
1979-07-23 03:16:29.080 ,5,0,0.,12.0,0.,12.0,0.,12.0,0.,12.0
1979-07-23 03:16:41.080 ,5,0,0.,12.0,0.,12.0,0.,12.0,0.,12.0
1979-07-23 03:16:53.080 ,6,0,0.,12.0,0.,12.0,0.,12.0,0.,12.0
1979-07-23 03:17:05.080 ,6,0,0.,12.0,0.,12.0,0.,12.0,0.,12.0
1979-07-23 03:17:17.080 ,6,0,0.,12.0,0.,12.0,0.,12.0,0.,12.0
1979-07-23 03:17:29.080 ,6,0,0.,12.0,0.,12.0,0.,12.0,0.,12.0
1979-07-23 03:17:41.080 ,7,0,0.,12.0,0.,12.0,0.,12.0,0.,12.0
1979-07-23 03:17:53.080 ,7,0,0.,12.0,0.,12.0,0.,12.0,0.,12.0
1979-07-23 03:18:05.080 ,7,0,0.,12.0,0.,12.0,0.,12.0,0.,12.0
1979-07-23 03:18:17.080 ,7,0,0.,12.0,0.,12.0,0.,12.0,0.,12.0
1979-07-23 03:18:29.080 ,7,0,0.,12.0,0.,12.0,0.,12.0,0.,12.0
1979-07-23 03:18:41.080 ,7,0,0.,12.0,0.,12.0,0.,12.0,0.,12.0
1979-07-23 03:18:53.080 ,7,0,0.,12.0,0.,12.0,0.,12.0,0.,12.0
1979-07-23 03:19:05.080 ,7,0,0.,12.0,0.,12.0,0.,12.0,0.,12.0
1979-07-23 03:19:17.080 ,6,0,0.,12.0,0.,12.0,0.,12.0,0.,12.0
1979-07-23 03:19:29.080 ,6,0,0.,12.0,0.,12.0,0.,12.0,0.,12.0
1979-07-23 03:19:41.080 ,6,0,0.,12.0,0.,12.0,0.,12.0,0.,12.0
1979-07-23 03:19:53.080 ,6,0,0.,12.0,0.,12.0,0.,12.0,0.,12.0
1979-07-23 03:20:05.080 ,5,0,0.,12.0,0.,12.0,0.,12.0,0.,12.0
1979-07-23 03:20:17.080 ,5,0,0.,12.0,0.,12.0,0.,12.0,0.,12.0
1979-07-23 03:20:29.080 ,5,0,0.,12.0,0.,12.0,0.,12.0,0.,12.0
1979-07-23 03:20:41.080 ,5,0,0.,12.0,0.,12.0,0.,12.0,0.,12.0
1979-07-23 03:20:53.080 ,4,0,0.,12.0,0.,12.0,0.,12.0,0.,12.0
1979-07-23 03:21:05.080 ,4,0,0.,12.0,0.,12.0,1.,12.0,0.,12.0
1979-07-23 03:21:17.080 ,4,0,0.,12.0,0.,12.0,0.,12.0,0.,12.0
1979-07-23 03:21:29.080 ,4,0,0.,12.0,0.,12.0,0.,12.0,0.,12.0
1979-07-23 03:21:41.080 ,3,0,0.,12.0,0.,12.0,0.,12.0,0.,12.0
1979-07-23 03:21:53.080 ,3,0,0.,12.0,0.,12.0,0.,12.0,0.,12.0
1979-07-23 03:22:05.080 ,3,0,0.,12.0,0.,12.0,0.,12.0,0.,12.0
1979-07-23 03:22:17.080 ,3,0,0.,12.0,0.,12.0,0.,12.0,0.,12.0
1979-07-23 03:22:29.080 ,2,0,0.,12.0,0.,12.0,0.,12.0,0.,12.0
1979-07-23 03:22:41.080 ,2,0,0.,12.0,0.,12.0,0.,12.0,0.,12.0
1979-07-23 03:22:53.080 ,2,0,0.,12.0,0.,12.0,0.,12.0,0.,12.0
1979-07-23 03:23:05.080 ,2,0,0.,12.0,0.,12.0,0.,12.0,0.,12.0
1979-07-23 03:23:17.080 ,1,0,0.,12.0,0.,12.0,0.,12.0,0.,12.0
1979-07-23 03:23:29.080 ,1,0,0.,12.0,0.,12.0,0.,12.0,0.,12.0
1979-07-23 03:23:41.080 ,1,0,0.,12.0,0.,12.0,0.,12.0,0.,12.0
1979-07-23 03:23:53.080 ,1,0,0.,12.0,0.,12.0,0.,12.0,0.,12.0
1979-07-23 03:24:05.080 ,0,0,0.,12.0,0.,12.0,0.,12.0,0.,12.0
1979-07-23 03:24:17.080 ,0,0,0.,12.0,0.,12.0,0.,12.0,0.,12.0
1979-07-23 03:24:29.080 ,0,0,0.,12.0,0.,12.0,0.,12.0,0.,12.0
1979-07-23 03:24:41.080 ,0,0,0.,12.0,0.,12.0,0.,12.0,0.,12.0
1979-07-23 03:24:53.080 ,0,0,0.,12.0,0.,12.0,0.,12.0,0.,12.0
1979-07-23 03:25:05.080 ,0,0,0.,12.0,0.,12.0,0.,12.0,0.,12.0
1979-07-23 03:25:17.080 ,0,0,0.,12.0,0.,12.0,0.,12.0,0.,12.0
1979-07-23 03:25:29.080 ,0,0,0.,12.0,0.,12.0,0.,12.0,0.,12.0
1979-07-23 03:25:41.080 ,1,0,0.,12.0,0.,12.0,0.,12.0,0.,12.0
1979-07-23 03:25:53.080 ,1,0,0.,12.0,0.,12.0,0.,12.0,0.,12.0
1979-07-23 03:26:05.080 ,1,0,0.,12.0,0.,12.0,0.,12.0,0.,12.0
1979-07-23 03:26:17.080 ,1,0,0.,12.0,0.,12.0,0.,12.0,0.,12.0
1979-07-23 03:26:29.080 ,2,0,0.,12.0,0.,12.0,0.,12.0,0.,12.0
1979-07-23 03:26:41.080 ,2,0,0.,12.0,0.,12.0,0.,12.0,0.,12.0
1979-07-23 03:26:53.080 ,2,0,0.,12.0,0.,12.0,0.,12.0,0.,12.0
1979-07-23 03:27:05.080 ,2,0,0.,12.0,0.,12.0,0.,12.0,0.,12.0
1979-07-23 03:28:05.080 ,0,0,0.,12.0,0.,12.0,0.,12.0,0.,12.0
1979-07-23 03:28:17.080 ,0,0,0.,12.0,0.,12.0,0.,12.0,0.,12.0
1979-07-23 03:28:29.080 ,0,0,0.,12.0,0.,12.0,0.,12.0,0.,12.0
1979-07-23 03:28:41.080 ,0,0,0.,12.0,0.,12.0,0.,12.0,0.,12.0
1979-07-23 03:28:53.080 ,5,0,0.,12.0,0.,12.0,0.,12.0,0.,12.0
1979-07-23 03:29:05.080 ,5,0,0.,12.0,0.,12.0,0.,12.0,0.,12.0
1979-07-23 03:29:17.080 ,5,0,0.,12.0,0.,12.0,0.,12.0,0.,12.0
1979-07-23 03:29:29.080 ,5,0,0.,12.0,0.,12.0,0.,12.0,0.,12.0
1979-07-23 03:29:41.080 ,6,0,0.,12.0,0.,12.0,0.,12.0,0.,12.0
1979-07-23 03:29:53.080 ,6,0,0.,12.0,0.,12.0,0.,12.0,0.,12.0
1979-07-23 03:30:05.080 ,6,0,0.,12.0,0.,12.0,0.,12.0,0.,12.0
1979-07-23 03:30:17.080 ,6,0,0.,12.0,0.,12.0,0.,12.0,0.,12.0
1979-07-23 03:30:29.080 ,7,0,0.,12.0,0.,12.0,0.,12.0,0.,12.0
1979-07-23 03:30:41.080 ,7,0,0.,12.0,0.,12.0,0.,12.0,0.,12.0
1979-07-23 03:30:53.080 ,7,0,0.,12.0,0.,12.0,0.,12.0,0.,12.0
1979-07-23 03:31:05.080 ,7,0,0.,12.0,0.,12.0,0.,12.0,0.,12.0
1979-07-23 03:31:17.080 ,3,1,0.,12.0,0.,12.0,0.,12.0,0.,12.0
1979-07-23 03:31:29.080 ,3,1,0.,12.0,0.,12.0,0.,12.0,0.,12.0
1979-07-23 03:31:41.080 ,0,1,0.,12.0,0.,12.0,0.,12.0,0.,12.0
1979-07-23 03:31:53.080 ,0,1,0.,12.0,0.,12.0,0.,12.0,0.,12.0
1979-07-23 03:32:05.080 ,4,1,0.,12.0,0.,12.0,0.,12.0,0.,12.0
1979-07-23 03:32:17.080 ,4,1,0.,12.0,0.,12.0,0.,12.0,0.,12.0
1979-07-23 03:32:29.080 ,7,1,0.,12.0,0.,12.0,0.,12.0,0.,12.0
1979-07-23 03:32:41.080 ,7,1,0.,12.0,0.,12.0,0.,12.0,0.,12.0
1979-07-23 03:32:53.080 ,3,1,,0,,0,,0,,0
1979-07-23 03:33:05.080 ,3,1,0.,12.0,0.,12.0,0.,12.0,0.,12.0
1979-07-23 03:33:17.080 ,0,1,0.,12.0,0.,12.0,0.,12.0,0.,12.0
1979-07-23 03:33:29.080 ,0,1,0.,12.0,0.,12.0,0.,12.0,0.,12.0
1979-07-23 03:33:41.080 ,4,1,0.,12.0,0.,12.0,0.,12.0,0.,12.0
1979-07-23 03:33:53.080 ,4,1,0.,12.0,0.,12.0,0.,12.0,0.,12.0
1979-07-23 03:34:05.080 ,7,1,0.,12.0,0.,12.0,0.,12.0,0.,12.0
1979-07-23 03:34:17.080 ,7,1,0.,12.0,0.,12.0,0.,12.0,0.,12.0
1979-07-23 03:34:29.080 ,3,1,0.,12.0,0.,12.0,0.,12.0,0.,12.0
1979-07-23 03:34:41.080 ,3,1,0.,12.0,0.,12.0,0.,12.0,0.,12.0
1979-07-23 03:34:53.080 ,0,1,0.,12.0,0.,12.0,0.,12.0,0.,12.0
1979-07-23 03:35:05.080 ,0,1,0.,12.0,0.,12.0,0.,12.0,0.,12.0
1979-07-23 03:35:17.080 ,4,1,0.,12.0,0.,12.0,0.,12.0,0.,12.0
1979-07-23 03:35:29.080 ,4,1,0.,12.0,0.,12.0,0.,12.0,0.,12.0
1979-07-23 03:35:41.080 ,7,1,0.,12.0,0.,12.0,0.,12.0,0.,12.0
1979-07-23 03:35:53.080 ,7,1,0.,12.0,0.,12.0,0.,12.0,0.,12.0
1979-07-23 03:36:05.080 ,3,1,0.,12.0,0.,12.0,0.,12.0,0.,12.0
1979-07-23 03:36:17.080 ,3,1,0.,12.0,0.,12.0,0.,12.0,0.,12.0
1979-07-23 03:36:29.080 ,0,1,0.,12.0,0.,12.0,0.,12.0,0.,12.0
1979-07-23 03:36:41.080 ,0,1,0.,12.0,0.,12.0,0.,12.0,0.,12.0
1979-07-23 03:36:53.080 ,4,1,0.,12.0,0.,12.0,0.,12.0,0.,12.0
1979-07-23 03:37:05.080 ,4,1,0.,12.0,0.,12.0,0.,12.0,0.,12.0
1979-07-23 03:37:17.080 ,7,1,0.,12.0,0.,12.0,0.,12.0,0.,12.0
1979-07-23 03:37:29.080 ,7,1,0.,12.0,0.,12.0,0.,12.0,0.,12.0
1979-07-23 03:37:41.080 ,5,1,0.,12.0,0.,12.0,0.,12.0,0.,12.0
1979-07-23 03:37:53.080 ,5,1,,0,,0,,0,,0
1979-07-23 03:38:05.080 ,0,1,0.,12.0,0.,12.0,0.,12.0,0.,12.0
1979-07-23 03:38:17.080 ,0,1,0.,12.0,0.,12.0,0.,12.0,0.,12.0
1979-07-23 03:38:29.080 ,4,1,0.,12.0,0.,12.0,0.,12.0,0.,12.0
1979-07-23 03:38:41.080 ,4,1,0.,12.0,0.,12.0,0.,12.0,0.,12.0
1979-07-23 03:38:53.080 ,7,1,0.,12.0,0.,12.0,0.,12.0,0.,12.0
1979-07-23 03:39:05.080 ,7,1,0.,12.0,0.,12.0,0.,12.0,0.,12.0
1979-07-23 03:39:17.080 ,3,1,0.,12.0,0.,12.0,0.,12.0,0.,12.0
1979-07-23 03:39:29.080 ,3,1,0.,12.0,0.,12.0,0.,12.0,0.,12.0
1979-07-23 03:39:41.080 ,0,1,0.,12.0,0.,12.0,0.,12.0,0.,12.0
1979-07-23 03:39:53.080 ,0,1,0.,12.0,0.,12.0,0.,12.0,0.,12.0
1979-07-23 03:40:05.080 ,4,1,0.,12.0,0.,12.0,0.,12.0,0.,12.0
1979-07-23 03:40:17.080 ,4,1,0.,12.0,0.,12.0,0.,12.0,0.,12.0
1979-07-23 03:40:29.080 ,7,1,0.,12.0,0.,12.0,0.,12.0,0.,12.0
1979-07-23 03:40:41.080 ,7,1,0.,12.0,0.,12.0,0.,12.0,0.,12.0
1979-07-23 03:40:53.080 ,3,1,0.,12.0,0.,12.0,0.,12.0,0.,12.0
1979-07-23 03:41:05.080 ,3,1,0.,12.0,0.,12.0,0.,12.0,0.,12.0
1979-07-23 03:41:17.080 ,0,1,0.,12.0,0.,12.0,0.,12.0,0.,12.0
1979-07-23 03:41:29.080 ,0,1,0.,12.0,0.,12.0,0.,12.0,0.,12.0
1979-07-23 03:41:41.080 ,0,0,0.,12.0,0.,12.0,0.,12.0,0.,12.0
1979-07-23 03:41:53.080 ,0,0,0.,12.0,0.,12.0,0.,12.0,0.,12.0
1979-07-23 03:42:05.080 ,0,0,0.,12.0,0.,12.0,0.,12.0,0.,12.0
1979-07-23 03:42:17.080 ,0,0,0.,12.0,0.,12.0,0.,12.0,0.,12.0
1979-07-23 03:42:29.080 ,5,0,0.,12.0,0.,12.0,0.,12.0,0.,12.0
1979-07-23 03:42:41.080 ,5,0,0.,12.0,0.,12.0,0.,12.0,0.,12.0
1979-07-23 03:42:53.080 ,5,0,,0,,0,,0,,0
1979-07-23 03:43:05.080 ,5,0,0.,12.0,0.,12.0,0.,12.0,0.,12.0
1979-07-23 04:23:41.080 ,7,1,0.,12.0,0.,12.0,0.,12.0,0.,12.0
1979-07-23 04:23:53.080 ,7,1,0.,12.0,0.,12.0,0.,12.0,0.,12.0
1979-07-23 04:24:05.080 ,3,1,0.,12.0,0.,12.0,0.,12.0,0.,12.0
1979-07-23 04:24:17.080 ,3,1,0.,12.0,0.,12.0,0.,12.0,0.,12.0
1979-07-23 04:24:29.080 ,0,1,0.,12.0,0.,12.0,0.,12.0,0.,12.0
1979-07-23 04:24:41.080 ,0,1,0.,12.0,0.,12.0,0.,12.0,0.,12.0
1979-07-23 04:24:53.080 ,4,1,0.,12.0,0.,12.0,0.,12.0,0.,12.0
1979-07-23 04:25:05.080 ,4,1,1.,12.0,0.,12.0,0.,12.0,0.,12.0
1979-07-23 04:25:17.080 ,7,1,0.,12.0,0.,12.0,0.,12.0,0.,12.0
1979-07-23 04:25:29.080 ,7,1,0.,12.0,0.,12.0,0.,12.0,0.,12.0
1979-07-23 04:25:41.080 ,3,1,0.,12.0,0.,12.0,0.,12.0,0.,12.0
1979-07-23 04:25:53.080 ,3,1,0.,12.0,0.,12.0,0.,12.0,0.,12.0
1979-07-23 04:26:05.080 ,0,1,0.,12.0,0.,12.0,0.,12.0,0.,12.0
1979-07-23 04:26:17.080 ,0,1,0.,12.0,0.,12.0,0.,12.0,0.,12.0
1979-07-23 04:26:29.080 ,4,1,0.,12.0,0.,12.0,0.,12.0,0.,12.0
1979-07-23 04:26:41.080 ,4,1,0.,12.0,0.,12.0,0.,12.0,0.,12.0
1979-07-23 04:26:53.080 ,7,1,0.,12.0,0.,12.0,0.,12.0,0.,12.0
1979-07-23 04:27:05.080 ,7,1,0.,12.0,0.,12.0,0.,12.0,0.,12.0
1979-07-23 04:27:17.080 ,3,1,0.,12.0,0.,12.0,0.,12.0,0.,12.0
1979-07-23 04:27:29.080 ,3,1,0.,12.0,0.,12.0,0.,12.0,0.,12.0
1979-07-23 04:27:41.080 ,0,1,0.,12.0,0.,12.0,0.,12.0,0.,12.0
1979-07-23 04:27:53.080 ,0,1,0.,12.0,0.,12.0,0.,12.0,0.,12.0
1979-07-23 04:28:05.080 ,4,1,0.,12.0,0.,12.0,0.,12.0,0.,12.0
1979-07-23 04:28:17.080 ,4,1,0.,12.0,0.,12.0,0.,12.0,0.,12.0
1979-07-23 04:28:29.080 ,7,1,0.,12.0,0.,12.0,0.,12.0,0.,12.0
1979-07-23 04:28:41.080 ,7,1,0.,12.0,0.,12.0,0.,12.0,0.,12.0
1979-07-23 04:28:53.080 ,3,1,0.,12.0,0.,12.0,0.,12.0,0.,12.0
1979-07-23 04:29:05.080 ,3,1,0.,12.0,0.,12.0,0.,12.0,0.,12.0
1979-07-23 04:29:17.080 ,0,1,0.,12.0,0.,12.0,0.,12.0,0.,12.0
1979-07-23 04:29:29.080 ,0,1,0.,12.0,0.,12.0,0.,12.0,0.,12.0
1979-07-23 04:29:41.080 ,0,0,0.,12.0,0.,12.0,0.,12.0,0.,12.0
1979-07-23 04:29:53.080 ,0,0,0.,12.0,0.,12.0,0.,12.0,0.,12.0
1979-07-23 04:30:05.080 ,0,0,0.,12.0,0.,12.0,0.,12.0,0.,12.0
1979-07-23 04:30:17.080 ,0,0,0.,12.0,0.,12.0,0.,12.0,0.,12.0
1979-07-23 04:30:29.080 ,5,0,0.,12.0,0.,12.0,0.,12.0,0.,12.0
1979-07-23 04:30:41.080 ,5,0,0.,12.0,0.,12.0,0.,12.0,0.,12.0
1979-07-23 04:30:53.080 ,5,0,0.,12.0,0.,12.0,0.,12.0,0.,12.0
1979-07-23 04:31:05.080 ,5,0,0.,12.0,0.,12.0,0.,12.0,0.,12.0
1979-07-23 04:31:17.080 ,4,0,0.,12.0,0.,12.0,0.,12.0,0.,12.0
1979-07-23 04:31:29.080 ,4,0,0.,12.0,0.,12.0,0.,12.0,0.,12.0
1979-07-23 04:31:41.080 ,4,0,0.,12.0,0.,12.0,0.,12.0,0.,12.0
1979-07-23 04:31:53.080 ,4,0,0.,12.0,0.,12.0,0.,12.0,0.,12.0
1979-07-23 04:32:05.080 ,3,0,0.,12.0,0.,12.0,0.,12.0,0.,12.0
1979-07-23 04:32:17.080 ,3,0,0.,12.0,0.,12.0,0.,12.0,0.,12.0
1979-07-23 04:32:29.080 ,3,0,0.,12.0,0.,12.0,0.,12.0,0.,12.0
1979-07-23 04:32:41.080 ,3,0,0.,12.0,0.,12.0,0.,12.0,0.,12.0
1979-07-23 04:32:53.080 ,2,0,0.,12.0,0.,12.0,0.,12.0,0.,12.0
1979-07-23 04:33:05.080 ,2,0,0.,12.0,0.,12.0,0.,12.0,0.,12.0
1979-07-23 04:33:17.080 ,2,0,0.,12.0,0.,12.0,0.,12.0,0.,12.0
1979-07-23 04:33:29.080 ,2,0,0.,12.0,0.,12.0,0.,12.0,0.,12.0
1979-07-23 04:33:41.080 ,1,0,0.,12.0,0.,12.0,0.,12.0,0.,12.0
1979-07-23 04:33:53.080 ,1,0,0.,12.0,0.,12.0,0.,12.0,0.,12.0
1979-07-23 04:34:05.080 ,1,0,0.,12.0,0.,12.0,0.,12.0,0.,12.0
1979-07-23 04:34:17.080 ,1,0,0.,12.0,0.,12.0,0.,12.0,0.,12.0
1979-07-23 04:34:29.080 ,0,0,0.,12.0,0.,12.0,0.,12.0,0.,12.0
1979-07-23 04:34:41.080 ,0,0,0.,12.0,0.,12.0,0.,12.0,0.,12.0
1979-07-23 04:34:53.080 ,0,0,0.,12.0,0.,12.0,0.,12.0,0.,12.0
1979-07-23 04:35:05.080 ,0,0,0.,12.0,0.,12.0,0.,12.0,0.,12.0
1979-07-23 04:35:17.080 ,0,0,0.,12.0,0.,12.0,0.,12.0,0.,12.0
1979-07-23 04:35:29.080 ,0,0,0.,12.0,0.,12.0,0.,12.0,0.,12.0
1979-07-23 04:35:41.080 ,0,0,0.,12.0,0.,12.0,0.,12.0,0.,12.0
1979-07-23 04:35:53.080 ,0,0,0.,12.0,0.,12.0,0.,12.0,0.,12.0
1979-07-23 04:36:05.080 ,1,0,0.,12.0,0.,12.0,0.,12.0,0.,12.0
1979-07-23 04:36:17.080 ,1,0,0.,12.0,0.,12.0,0.,12.0,0.,12.0
1979-07-23 04:36:29.080 ,1,0,0.,12.0,0.,12.0,0.,12.0,0.,12.0
1979-07-23 04:36:41.080 ,1,0,0.,12.0,0.,12.0,0.,12.0,0.,12.0
1979-07-23 04:36:53.080 ,2,0,0.,12.0,0.,12.0,0.,12.0,0.,12.0
1979-07-23 04:37:05.080 ,2,0,0.,12.0,0.,12.0,0.,12.0,0.,12.0
1979-07-23 04:37:17.080 ,2,0,0.,12.0,0.,12.0,0.,12.0,0.,12.0
1979-07-23 04:37:29.080 ,2,0,0.,12.0,0.,12.0,0.,12.0,0.,12.0
1979-07-23 04:37:41.080 ,3,0,0.,12.0,0.,12.0,0.,12.0,0.,12.0
1979-07-23 04:37:53.080 ,3,0,0.,12.0,0.,12.0,0.,12.0,0.,12.0
1979-07-23 04:38:05.080 ,3,0,0.,12.0,0.,12.0,0.,12.0,0.,12.0
1979-07-23 04:38:17.080 ,3,0,0.,12.0,0.,12.0,0.,12.0,0.,12.0
1979-07-23 04:38:29.080 ,4,0,0.,12.0,0.,12.0,0.,12.0,0.,12.0
1979-07-23 04:38:41.080 ,4,0,0.,12.0,0.,12.0,0.,12.0,0.,12.0
1979-07-23 04:38:53.080 ,4,0,1.,12.0,0.,12.0,0.,12.0,0.,12.0
1979-07-23 04:39:05.080 ,4,0,0.,12.0,0.,12.0,0.,12.0,0.,12.0
1979-07-23 04:39:17.080 ,5,0,0.,12.0,0.,12.0,0.,12.0,0.,12.0
1979-07-23 04:39:29.080 ,5,0,0.,12.0,0.,12.0,0.,12.0,0.,12.0
1979-07-23 04:39:41.080 ,5,0,0.,12.0,0.,12.0,0.,12.0,0.,12.0
1979-07-23 04:39:53.080 ,5,0,0.,12.0,0.,12.0,0.,12.0,0.,12.0
1979-07-23 04:40:05.080 ,6,0,0.,12.0,0.,12.0,0.,12.0,0.,12.0
1979-07-23 04:40:17.080 ,6,0,0.,12.0,0.,12.0,0.,12.0,0.,12.0
1979-07-23 04:40:29.080 ,6,0,1.,12.0,0.,12.0,0.,12.0,0.,12.0
1979-07-23 04:40:41.080 ,6,0,0.,12.0,0.,12.0,0.,12.0,0.,12.0
1979-07-23 04:40:53.080 ,7,0,0.,12.0,0.,12.0,0.,12.0,0.,12.0
1979-07-23 04:41:05.080 ,7,0,0.,12.0,0.,12.0,0.,12.0,0.,12.0
1979-07-23 04:41:17.080 ,7,0,0.,12.0,0.,12.0,0.,12.0,0.,12.0
1979-07-23 04:41:29.080 ,7,0,0.,12.0,0.,12.0,0.,12.0,0.,12.0
1979-07-23 04:41:41.080 ,7,0,0.,12.0,0.,12.0,0.,12.0,0.,12.0
1979-07-23 04:41:53.080 ,7,0,0.,12.0,0.,12.0,0.,12.0,0.,12.0
1979-07-23 04:42:05.080 ,7,0,0.,12.0,0.,12.0,0.,12.0,0.,12.0
1979-07-23 04:42:17.080 ,7,0,0.,12.0,0.,12.0,0.,12.0,0.,12.0
1979-07-23 04:42:29.080 ,6,0,0.,12.0,0.,12.0,0.,12.0,0.,12.0
1979-07-23 04:42:41.080 ,6,0,0.,12.0,0.,12.0,0.,12.0,0.,12.0
1979-07-23 04:42:53.080 ,6,0,0.,12.0,0.,12.0,0.,12.0,0.,12.0
1979-07-23 04:43:05.080 ,6,0,0.,12.0,0.,12.0,0.,12.0,0.,12.0
1979-07-23 04:43:17.080 ,5,0,0.,12.0,0.,12.0,0.,12.0,0.,12.0
1979-07-23 04:43:29.080 ,5,0,0.,12.0,0.,12.0,0.,12.0,0.,12.0
1979-07-23 04:43:41.080 ,5,0,0.,12.0,0.,12.0,0.,12.0,0.,12.0
1979-07-23 04:43:53.080 ,5,0,0.,12.0,0.,12.0,0.,12.0,0.,12.0
1979-07-23 04:44:05.080 ,4,0,0.,12.0,0.,12.0,0.,12.0,0.,12.0
1979-07-23 04:44:17.080 ,4,0,0.,12.0,0.,12.0,0.,12.0,0.,12.0
1979-07-23 04:44:29.080 ,0,0,0.,12.0,0.,12.0,0.,12.0,0.,12.0
1979-07-23 04:44:41.080 ,0,0,0.,12.0,0.,12.0,0.,12.0,0.,12.0
1979-07-23 04:44:53.080 ,3,0,0.,12.0,0.,12.0,0.,12.0,0.,12.0
1979-07-23 04:45:05.080 ,3,0,0.,12.0,0.,12.0,0.,12.0,0.,12.0
1979-07-23 04:45:17.080 ,3,0,0.,12.0,0.,12.0,0.,12.0,0.,12.0
1979-07-23 04:45:29.080 ,3,0,0.,12.0,0.,12.0,0.,12.0,0.,12.0
1979-07-23 04:45:41.080 ,2,0,0.,12.0,0.,12.0,0.,12.0,0.,12.0
1979-07-23 04:45:53.080 ,2,0,0.,12.0,0.,12.0,0.,12.0,0.,12.0
1979-07-23 04:46:05.080 ,2,0,0.,12.0,0.,12.0,0.,12.0,0.,12.0
1979-07-23 04:46:17.080 ,2,0,0.,12.0,0.,12.0,0.,12.0,0.,12.0
1979-07-23 04:46:29.080 ,1,0,0.,12.0,0.,12.0,0.,12.0,0.,12.0
1979-07-23 04:46:41.080 ,1,0,0.,12.0,0.,12.0,0.,12.0,0.,12.0
1979-07-23 04:46:53.080 ,1,0,0.,12.0,0.,12.0,0.,12.0,0.,12.0
1979-07-23 04:47:05.080 ,1,0,0.,12.0,0.,12.0,0.,12.0,0.,12.0
1979-07-23 04:47:17.080 ,0,0,0.,12.0,0.,12.0,0.,12.0,0.,12.0
1979-07-23 04:47:29.080 ,0,0,0.,12.0,0.,12.0,0.,12.0,0.,12.0
1979-07-23 04:47:41.080 ,0,0,0.,12.0,0.,12.0,0.,12.0,0.,12.0
1979-07-23 04:47:53.080 ,0,0,0.,12.0,0.,12.0,0.,12.0,0.,12.0
1979-07-23 04:48:05.080 ,0,0,0.,12.0,0.,12.0,0.,12.0,0.,12.0
1979-07-23 04:48:17.080 ,0,0,0.,12.0,0.,12.0,0.,12.0,0.,12.0
1979-07-23 04:48:29.080 ,0,0,0.,12.0,0.,12.0,0.,12.0,0.,12.0
1979-07-23 04:48:41.080 ,0,0,0.,12.0,0.,12.0,0.,12.0,0.,12.0
1979-07-23 04:48:53.080 ,1,0,0.,12.0,0.,12.0,0.,12.0,0.,12.0
1979-07-23 04:49:05.080 ,1,0,0.,12.0,0.,12.0,0.,12.0,0.,12.0
1979-07-23 04:49:17.080 ,1,0,0.,12.0,0.,12.0,0.,12.0,0.,12.0
1979-07-23 04:49:29.080 ,1,0,1.,12.0,0.,12.0,0.,12.0,0.,12.0
1979-07-23 04:49:41.080 ,2,0,0.,12.0,0.,12.0,0.,12.0,0.,12.0
1979-07-23 04:49:53.080 ,2,0,0.,12.0,0.,12.0,0.,12.0,0.,12.0
1979-07-23 04:50:05.080 ,2,0,0.,12.0,0.,12.0,0.,12.0,0.,12.0
1979-07-23 04:50:17.080 ,2,0,0.,12.0,0.,12.0,0.,12.0,0.,12.0
1979-07-23 04:50:29.080 ,3,0,0.,12.0,0.,12.0,0.,12.0,0.,12.0
1979-07-23 04:50:41.080 ,3,0,0.,12.0,0.,12.0,0.,12.0,0.,12.0
1979-07-23 04:50:53.080 ,3,0,0.,12.0,0.,12.0,0.,12.0,0.,12.0
1979-07-23 04:51:05.080 ,3,0,0.,12.0,0.,12.0,0.,12.0,0.,12.0
1979-07-23 04:51:17.080 ,4,0,0.,12.0,0.,12.0,0.,12.0,0.,12.0
1979-07-23 04:51:29.080 ,4,0,0.,12.0,0.,12.0,0.,12.0,0.,12.0
1979-07-23 04:51:41.080 ,4,0,0.,12.0,0.,12.0,0.,12.0,0.,12.0
1979-07-23 04:51:53.080 ,4,0,0.,12.0,0.,12.0,0.,12.0,0.,12.0
1979-07-23 04:52:05.080 ,5,0,0.,12.0,1.,12.0,0.,12.0,0.,12.0
1979-07-23 04:52:17.080 ,5,0,0.,12.0,0.,12.0,0.,12.0,0.,12.0
1979-07-23 04:52:29.080 ,5,0,0.,12.0,0.,12.0,0.,12.0,0.,12.0
1979-07-23 04:52:41.080 ,5,0,0.,12.0,0.,12.0,0.,12.0,0.,12.0
1979-07-23 04:52:53.080 ,6,0,0.,12.0,0.,12.0,0.,12.0,0.,12.0
1979-07-23 04:53:05.080 ,6,0,0.,12.0,0.,12.0,0.,12.0,0.,12.0
1979-07-23 04:53:17.080 ,6,0,0.,12.0,0.,12.0,0.,12.0,0.,12.0
1979-07-23 04:53:29.080 ,6,0,0.,12.0,0.,12.0,0.,12.0,0.,12.0
1979-07-23 04:53:41.080 ,7,0,0.,12.0,0.,12.0,0.,12.0,0.,12.0
1979-07-23 04:53:53.080 ,7,0,0.,12.0,0.,12.0,0.,12.0,0.,12.0
1979-07-23 04:54:05.080 ,7,0,0.,12.0,0.,12.0,0.,12.0,0.,12.0
1979-07-23 04:54:17.080 ,7,0,0.,12.0,0.,12.0,0.,12.0,0.,12.0
1979-07-23 04:54:29.080 ,7,0,0.,12.0,0.,12.0,0.,12.0,0.,12.0
1979-07-23 04:54:41.080 ,7,0,0.,12.0,0.,12.0,0.,12.0,0.,12.0
1979-07-23 04:54:53.080 ,7,0,0.,12.0,0.,12.0,0.,12.0,0.,12.0
1979-07-23 04:55:05.080 ,7,0,0.,12.0,0.,12.0,0.,12.0,0.,12.0
1979-07-23 04:55:17.080 ,6,0,0.,12.0,0.,12.0,0.,12.0,0.,12.0
1979-07-23 04:55:29.080 ,6,0,2.,12.0,0.,12.0,0.,12.0,0.,12.0
1979-07-23 04:55:41.080 ,6,0,0.,12.0,0.,12.0,0.,12.0,0.,12.0
1979-07-23 04:55:53.080 ,6,0,0.,12.0,0.,12.0,0.,12.0,0.,12.0
1979-07-23 04:56:05.080 ,5,0,0.,12.0,0.,12.0,0.,12.0,0.,12.0
1979-07-23 04:56:17.080 ,5,0,0.,12.0,0.,12.0,0.,12.0,0.,12.0
1979-07-23 04:56:29.080 ,5,0,0.,12.0,0.,12.0,0.,12.0,0.,12.0
1979-07-23 04:56:41.080 ,5,0,0.,12.0,0.,12.0,0.,12.0,0.,12.0
1979-07-23 04:56:53.080 ,4,0,0.,12.0,0.,12.0,0.,12.0,0.,12.0
1979-07-23 04:57:05.080 ,4,0,0.,12.0,0.,12.0,0.,12.0,0.,12.0
1979-07-23 04:57:17.080 ,4,0,0.,12.0,0.,12.0,0.,12.0,0.,12.0
1979-07-23 04:57:29.080 ,4,0,0.,12.0,0.,12.0,0.,12.0,0.,12.0
1979-07-23 04:57:41.080 ,3,0,0.,12.0,0.,12.0,0.,12.0,0.,12.0
1979-07-23 04:57:53.080 ,3,0,0.,12.0,0.,12.0,0.,12.0,0.,12.0
1979-07-23 04:58:05.080 ,3,0,0.,12.0,0.,12.0,0.,12.0,0.,12.0
1979-07-23 04:58:17.080 ,3,0,0.,12.0,0.,12.0,0.,12.0,0.,12.0
1979-07-23 04:58:29.080 ,2,0,0.,12.0,0.,12.0,0.,12.0,0.,12.0
1979-07-23 04:58:41.080 ,2,0,0.,12.0,0.,12.0,0.,12.0,0.,12.0
1979-07-23 04:58:53.080 ,2,0,0.,12.0,0.,12.0,0.,12.0,0.,12.0
1979-07-23 04:59:05.080 ,2,0,0.,12.0,0.,12.0,0.,12.0,0.,12.0
1979-07-23 04:59:17.080 ,1,0,0.,12.0,0.,12.0,0.,12.0,0.,12.0
1979-07-23 04:59:29.080 ,1,0,0.,12.0,0.,12.0,0.,12.0,0.,12.0
1979-07-23 04:59:41.080 ,1,0,0.,12.0,0.,12.0,0.,12.0,0.,12.0